Time,TemperatureF,DewpointF,PressureIn,WindDirection,WindDirectionDegrees,WindSpeedMPH,WindSpeedGustMPH,Humidity,HourlyPrecipIn,Conditions,Clouds,dailyrainin,SoftwareType,DateUTC
2013-09-17 00:01:00,54.2,53.1,30.26,SE,124,0.0,1.0,96,0.00,,,0.00,WUHU216DAVISVP2,2013-09-17 04:01:00,
2013-09-17 00:06:00,54.2,53.1,30.26,SE,124,0.0,1.0,96,0.00,,,0.00,WUHU216DAVISVP2,2013-09-17 04:06:00,
2013-09-17 00:11:00,54.2,53.0,30.26,SE,124,0.0,0.0,96,0.00,,,0.00,WUHU216DAVISVP2,2013-09-17 04:11:00,
2013-09-17 00:16:00,54.2,53.0,30.26,SE,124,0.0,0.0,96,0.00,,,0.00,WUHU216DAVISVP2,2013-09-17 04:16:00,
2013-09-17 00:21:00,54.2,53.0,30.27,SE,124,0.0,0.0,96,0.00,,,0.00,WUHU216DAVISVP2,2013-09-17 04:21:00,
2013-09-17 00:26:00,54.2,53.0,30.27,SE,124,0.0,0.0,96,0.00,,,0.00,WUHU216DAVISVP2,2013-09-17 04:26:00,
2013-09-17 00:31:00,53.9,52.8,30.27,SE,124,0.0,0.0,96,0.00,,,0.00,WUHU216DAVISVP2,2013-09-17 04:31:00,
2013-09-17 00:36:00,53.8,52.7,30.27,ESE,123,1.0,1.0,96,0.00,,,0.00,WUHU216DAVISVP2,2013-09-17 04:36:00,
2013-09-17 00:41:00,53.7,52.6,30.27,ESE,123,0.0,1.0,96,0.00,,,0.00,WUHU216DAVISVP2,2013-09-17 04:41:00,
2013-09-17 00:46:00,53.6,52.5,30.27,ESE,123,1.0,1.0,96,0.00,,,0.00,WUHU216DAVISVP2,2013-09-17 04:46:00,
2013-09-17 00:51:00,53.7,52.6,30.27,SE,129,1.0,1.0,96,0.00,,,0.00,WUHU216DAVISVP2,2013-09-17 04:51:00,
2013-09-17 00:56:00,53.6,52.5,30.27,ESE,115,0.0,1.0,96,0.00,,,0.00,WUHU216DAVISVP2,2013-09-17 04:56:00,
2013-09-17 01:01:00,53.6,52.5,30.27,ESE,116,0.0,1.0,96,0.00,,,0.00,WUHU216DAVISVP2,2013-09-17 05:01:00,
2013-09-17 01:06:00,53.5,52.4,30.27,ESE,115,0.0,1.0,96,0.00,,,0.00,WUHU216DAVISVP2,2013-09-17 05:06:00,
2013-09-17 01:11:00,53.5,52.4,30.28,WNW,294,1.3,3.0,96,0.00,,,0.00,WUHU216DAVISVP2,2013-09-17 05:11:00,
2013-09-17 01:16:00,53.6,52.5,30.28,West,262,0.0,3.0,96,0.00,,,0.00,WUHU216DAVISVP2,2013-09-17 05:16:00,
2013-09-17 01:21:00,53.5,52.4,30.28,West,262,0.0,3.0,96,0.00,,,0.00,WUHU216DAVISVP2,2013-09-17 05:21:00,
2013-09-17 01:26:00,53.5,52.4,30.28,West,262,0.0,3.0,96,0.00,,,0.00,WUHU216DAVISVP2,2013-09-17 05:26:00,
2013-09-17 01:31:00,53.6,52.5,30.28,West,262,1.0,1.0,96,0.00,,,0.00,WUHU216DAVISVP2,2013-09-17 05:31:00,
2013-09-17 01:36:00,53.5,52.4,30.28,ESE,123,0.0,1.0,96,0.00,,,0.00,WUHU216DAVISVP2,2013-09-17 05:36:00,
2013-09-17 01:41:00,53.6,52.5,30.28,ESE,123,0.0,1.0,96,0.00,,,0.00,WUHU216DAVISVP2,2013-09-17 05:41:00,
2013-09-17 01:46:00,53.6,52.5,30.28,ESE,118,1.0,1.0,96,0.00,,,0.00,WUHU216DAVISVP2,2013-09-17 05:46:00,
2013-09-17 01:51:00,53.5,52.4,30.28,ESE,119,0.0,1.0,96,0.00,,,0.00,WUHU216DAVISVP2,2013-09-17 05:51:00,
2013-09-17 01:56:00,53.4,52.3,30.28,ESE,117,0.0,1.0,96,0.00,,,0.00,WUHU216DAVISVP2,2013-09-17 05:56:00,
2013-09-17 02:01:00,53.3,52.2,30.28,ESE,117,0.0,1.0,96,0.00,,,0.00,WUHU216DAVISVP2,2013-09-17 06:01:00,
2013-09-17 02:06:00,53.3,52.2,30.28,ESE,117,0.0,1.0,96,0.00,,,0.00,WUHU216DAVISVP2,2013-09-17 06:06:00,
2013-09-17 02:11:00,53.4,52.3,30.28,ESE,117,0.0,1.0,96,0.00,,,0.00,WUHU216DAVISVP2,2013-09-17 06:11:00,
2013-09-17 02:16:00,53.4,52.3,30.29,ESE,117,0.0,0.0,96,0.00,,,0.00,WUHU216DAVISVP2,2013-09-17 06:16:00,
2013-09-17 02:21:00,53.4,52.3,30.28,ESE,117,0.0,1.0,96,0.00,,,0.00,WUHU216DAVISVP2,2013-09-17 06:21:00,
2013-09-17 02:26:00,53.5,52.4,30.28,ESE,117,0.0,1.0,96,0.00,,,0.00,WUHU216DAVISVP2,2013-09-17 06:26:00,
2013-09-17 02:31:00,53.6,52.5,30.29,ESE,117,0.0,1.0,96,0.00,,,0.00,WUHU216DAVISVP2,2013-09-17 06:31:00,
2013-09-17 02:36:00,53.7,52.6,30.28,ESE,117,0.0,1.0,96,0.00,,,0.00,WUHU216DAVISVP2,2013-09-17 06:36:00,
2013-09-17 02:41:00,53.8,52.7,30.29,WSW,240,0.0,0.0,96,0.00,,,0.00,WUHU216DAVISVP2,2013-09-17 06:41:00,
2013-09-17 02:46:00,53.9,52.8,30.29,WSW,240,0.0,0.0,96,0.00,,,0.00,WUHU216DAVISVP2,2013-09-17 06:46:00,
2013-09-17 02:51:00,53.9,52.8,30.29,WSW,240,0.0,0.0,96,0.00,,,0.00,WUHU216DAVISVP2,2013-09-17 06:51:00,
2013-09-17 02:56:00,54.0,52.9,30.29,WSW,240,0.0,0.0,96,0.00,,,0.00,WUHU216DAVISVP2,2013-09-17 06:56:00,
2013-09-17 03:01:00,54.1,52.9,30.29,WSW,240,0.0,0.0,96,0.00,,,0.00,WUHU216DAVISVP2,2013-09-17 07:01:00,
2013-09-17 03:06:00,54.2,53.0,30.28,WSW,240,0.0,0.0,96,0.00,,,0.00,WUHU216DAVISVP2,2013-09-17 07:06:00,
2013-09-17 03:11:00,54.2,53.0,30.29,WSW,240,0.0,0.0,96,0.00,,,0.00,WUHU216DAVISVP2,2013-09-17 07:11:00,
2013-09-17 03:16:00,54.3,53.1,30.28,WSW,240,1.0,1.0,96,0.00,,,0.00,WUHU216DAVISVP2,2013-09-17 07:16:00,
2013-09-17 03:21:00,54.2,53.0,30.28,WSW,240,0.0,1.0,96,0.00,,,0.00,WUHU216DAVISVP2,2013-09-17 07:21:00,
2013-09-17 03:26:00,54.2,53.0,30.28,WSW,240,0.0,1.0,96,0.00,,,0.00,WUHU216DAVISVP2,2013-09-17 07:26:00,
2013-09-17 03:31:00,54.1,52.9,30.29,WSW,240,1.0,1.0,96,0.00,,,0.00,WUHU216DAVISVP2,2013-09-17 07:31:00,
2013-09-17 03:36:00,54.1,52.9,30.28,WSW,240,1.0,1.0,96,0.00,,,0.00,WUHU216DAVISVP2,2013-09-17 07:36:00,
2013-09-17 03:41:00,54.1,52.9,30.28,WSW,240,0.0,1.0,96,0.00,,,0.00,WUHU216DAVISVP2,2013-09-17 07:41:00,
2013-09-17 03:46:00,54.0,52.9,30.28,WSW,240,0.0,1.0,96,0.00,,,0.00,WUHU216DAVISVP2,2013-09-17 07:46:00,
2013-09-17 03:51:00,54.0,52.9,30.28,WSW,240,1.0,1.0,96,0.00,,,0.00,WUHU216DAVISVP2,2013-09-17 07:51:00,
2013-09-17 03:56:00,53.9,52.8,30.28,WSW,240,0.0,1.0,96,0.00,,,0.00,WUHU216DAVISVP2,2013-09-17 07:56:00,
2013-09-17 04:01:00,54.0,52.9,30.28,WSW,240,0.0,1.0,96,0.00,,,0.00,WUHU216DAVISVP2,2013-09-17 08:01:00,
2013-09-17 04:06:00,53.9,52.8,30.28,WSW,240,0.0,1.0,96,0.00,,,0.00,WUHU216DAVISVP2,2013-09-17 08:06:00,
2013-09-17 04:11:00,53.7,52.6,30.28,WSW,240,1.0,1.0,96,0.00,,,0.00,WUHU216DAVISVP2,2013-09-17 08:11:00,
2013-09-17 04:16:00,53.5,52.4,30.28,WSW,240,0.0,1.0,96,0.00,,,0.00,WUHU216DAVISVP2,2013-09-17 08:16:00,
2013-09-17 04:21:00,53.4,52.3,30.28,WSW,240,0.0,1.0,96,0.00,,,0.00,WUHU216DAVISVP2,2013-09-17 08:21:00,
2013-09-17 04:26:00,53.4,52.3,30.28,WSW,240,0.0,1.0,96,0.00,,,0.00,WUHU216DAVISVP2,2013-09-17 08:26:00,
2013-09-17 04:31:00,53.4,52.3,30.28,WSW,240,0.0,1.0,96,0.00,,,0.00,WUHU216DAVISVP2,2013-09-17 08:31:00,
2013-09-17 04:36:00,53.2,52.1,30.28,WSW,240,0.0,1.0,96,0.00,,,0.00,WUHU216DAVISVP2,2013-09-17 08:36:00,
2013-09-17 04:41:00,53.0,51.9,30.29,ESE,108,1.5,2.0,96,0.00,,,0.00,WUHU216DAVISVP2,2013-09-17 08:41:00,
2013-09-17 04:46:00,52.8,51.7,30.29,SE,125,1.0,2.0,96,0.00,,,0.00,WUHU216DAVISVP2,2013-09-17 08:46:00,
2013-09-17 04:51:00,52.7,51.6,30.29,ESE,120,1.0,2.0,96,0.00,,,0.00,WUHU216DAVISVP2,2013-09-17 08:51:00,
2013-09-17 04:56:00,52.5,51.4,30.29,ESE,118,1.0,2.0,96,0.00,,,0.00,WUHU216DAVISVP2,2013-09-17 08:56:00,
2013-09-17 05:01:00,52.4,51.3,30.29,ESE,111,1.0,1.0,96,0.00,,,0.00,WUHU216DAVISVP2,2013-09-17 09:01:00,
2013-09-17 05:06:00,52.4,51.3,30.29,ESE,105,1.0,1.0,96,0.00,,,0.00,WUHU216DAVISVP2,2013-09-17 09:06:00,
2013-09-17 05:11:00,52.3,51.2,30.29,East,91,1.0,1.0,96,0.00,,,0.00,WUHU216DAVISVP2,2013-09-17 09:11:00,
2013-09-17 05:16:00,52.2,51.1,30.29,East,98,1.0,1.0,96,0.00,,,0.00,WUHU216DAVISVP2,2013-09-17 09:16:00,
2013-09-17 05:21:00,52.2,51.1,30.29,East,98,0.0,1.0,96,0.00,,,0.00,WUHU216DAVISVP2,2013-09-17 09:21:00,
2013-09-17 05:26:00,52.1,51.0,30.29,East,99,0.0,1.0,96,0.00,,,0.00,WUHU216DAVISVP2,2013-09-17 09:26:00,
2013-09-17 05:31:00,52.1,51.0,30.29,SE,128,0.0,1.0,96,0.00,,,0.00,WUHU216DAVISVP2,2013-09-17 09:31:00,
2013-09-17 05:36:00,52.1,51.0,30.29,SE,125,0.0,0.0,96,0.00,,,0.00,WUHU216DAVISVP2,2013-09-17 09:36:00,
2013-09-17 05:41:00,52.2,51.1,30.30,ESE,114,0.0,0.0,96,0.00,,,0.00,WUHU216DAVISVP2,2013-09-17 09:41:00,
2013-09-17 05:46:00,52.2,51.1,30.30,ESE,103,0.0,0.0,96,0.00,,,0.00,WUHU216DAVISVP2,2013-09-17 09:46:00,
2013-09-17 05:51:00,52.2,51.1,30.30,ESE,104,1.0,2.0,96,0.00,,,0.00,WUHU216DAVISVP2,2013-09-17 09:51:00,
2013-09-17 05:56:00,52.2,51.1,30.30,East,101,1.0,2.0,96,0.00,,,0.00,WUHU216DAVISVP2,2013-09-17 09:56:00,
2013-09-17 06:01:00,52.2,51.1,30.30,East,101,1.0,1.0,96,0.00,,,0.00,WUHU216DAVISVP2,2013-09-17 10:01:00,
2013-09-17 06:09:00,52.2,51.1,30.30,East,101,0.0,1.0,96,0.00,,,0.00,WUHU216DAVISVP2,2013-09-17 10:09:00,
2013-09-17 06:14:00,52.3,51.2,30.30,East,101,0.0,1.0,96,0.00,,,0.00,WUHU216DAVISVP2,2013-09-17 10:14:00,
2013-09-17 06:19:00,52.5,51.4,30.31,East,101,0.0,1.0,96,0.00,,,0.00,WUHU216DAVISVP2,2013-09-17 10:19:00,
2013-09-17 06:24:00,52.5,51.4,30.31,East,101,0.0,1.0,96,0.00,,,0.00,WUHU216DAVISVP2,2013-09-17 10:24:00,
2013-09-17 06:30:00,52.6,51.5,30.31,East,101,0.0,1.0,96,0.00,,,0.00,WUHU216DAVISVP2,2013-09-17 10:30:00,
2013-09-17 06:35:00,52.7,51.6,30.31,SE,129,1.0,3.0,96,0.00,,,0.00,WUHU216DAVISVP2,2013-09-17 10:35:00,
2013-09-17 06:40:00,52.7,51.6,30.31,SE,127,0.0,2.0,96,0.00,,,0.00,WUHU216DAVISVP2,2013-09-17 10:40:00,
2013-09-17 06:45:00,52.7,51.6,30.31,SE,127,0.0,2.0,96,0.00,,,0.00,WUHU216DAVISVP2,2013-09-17 10:45:00,
2013-09-17 06:50:00,52.7,51.6,30.32,SE,127,0.0,1.0,96,0.00,,,0.00,WUHU216DAVISVP2,2013-09-17 10:50:00,
2013-09-17 06:55:00,52.8,51.7,30.31,ENE,73,1.0,1.0,96,0.00,,,0.00,WUHU216DAVISVP2,2013-09-17 10:55:00,
2013-09-17 07:00:00,52.7,51.6,30.31,ENE,67,0.0,2.0,96,0.00,,,0.00,WUHU216DAVISVP2,2013-09-17 11:00:00,
2013-09-17 07:05:00,52.6,51.5,30.32,SE,127,2.3,5.0,96,0.00,,,0.00,WUHU216DAVISVP2,2013-09-17 11:05:00,
2013-09-17 07:10:00,52.6,51.5,30.32,ESE,105,2.0,5.0,96,0.00,,,0.00,WUHU216DAVISVP2,2013-09-17 11:10:00,
2013-09-17 07:15:00,52.5,51.4,30.32,East,84,1.1,5.0,96,0.00,,,0.00,WUHU216DAVISVP2,2013-09-17 11:15:00,
2013-09-17 07:20:00,52.5,51.4,30.32,ESE,118,3.0,5.0,96,0.00,,,0.00,WUHU216DAVISVP2,2013-09-17 11:20:00,
2013-09-17 07:25:00,52.5,51.4,30.33,ENE,58,1.1,3.0,96,0.00,,,0.00,WUHU216DAVISVP2,2013-09-17 11:25:00,
2013-09-17 07:30:00,52.5,51.4,30.33,ENE,61,0.0,3.0,96,0.00,,,0.00,WUHU216DAVISVP2,2013-09-17 11:30:00,
2013-09-17 07:35:00,52.5,51.4,30.33,ESE,116,1.0,3.0,96,0.00,,,0.00,WUHU216DAVISVP2,2013-09-17 11:35:00,
2013-09-17 07:40:00,52.5,51.4,30.33,ESE,116,0.0,2.0,96,0.00,,,0.00,WUHU216DAVISVP2,2013-09-17 11:40:00,
2013-09-17 07:45:00,52.5,51.4,30.33,East,80,1.0,2.0,96,0.00,,,0.00,WUHU216DAVISVP2,2013-09-17 11:45:00,
2013-09-17 07:50:00,52.4,51.3,30.33,ESE,120,3.0,3.0,96,0.00,,,0.00,WUHU216DAVISVP2,2013-09-17 11:50:00,
2013-09-17 07:55:00,52.3,51.2,30.33,North,6,1.0,3.0,96,0.00,,,0.00,WUHU216DAVISVP2,2013-09-17 11:55:00,
2013-09-17 08:00:00,52.3,51.2,30.33,ESE,122,1.2,3.0,96,0.00,,,0.00,WUHU216DAVISVP2,2013-09-17 12:00:00,
2013-09-17 08:05:00,52.4,51.3,30.33,ESE,113,0.0,3.0,96,0.00,,,0.00,WUHU216DAVISVP2,2013-09-17 12:05:00,
2013-09-17 08:10:00,52.4,51.3,30.33,ESE,116,1.1,2.0,96,0.00,,,0.00,WUHU216DAVISVP2,2013-09-17 12:10:00,
2013-09-17 08:15:00,52.3,51.2,30.33,ESE,115,2.0,2.0,96,0.00,,,0.00,WUHU216DAVISVP2,2013-09-17 12:15:00,
2013-09-17 08:20:00,52.4,51.3,30.33,ESE,109,1.0,2.0,96,0.00,,,0.00,WUHU216DAVISVP2,2013-09-17 12:20:00,
2013-09-17 08:25:00,52.5,51.4,30.33,ENE,73,1.1,2.0,96,0.00,,,0.00,WUHU216DAVISVP2,2013-09-17 12:25:00,
2013-09-17 08:30:00,52.5,51.4,30.33,NE,49,3.0,3.0,96,0.00,,,0.00,WUHU216DAVISVP2,2013-09-17 12:30:00,
2013-09-17 08:35:00,52.4,51.3,30.34,NNE,27,2.0,4.0,96,0.00,,,0.00,WUHU216DAVISVP2,2013-09-17 12:35:00,
2013-09-17 08:40:00,52.5,51.4,30.33,NE,49,1.5,4.0,96,0.00,,,0.00,WUHU216DAVISVP2,2013-09-17 12:40:00,
2013-09-17 08:45:00,52.7,51.6,30.34,NE,50,1.0,3.0,96,0.00,,,0.00,WUHU216DAVISVP2,2013-09-17 12:45:00,
2013-09-17 08:50:00,52.7,51.6,30.34,ESE,117,1.2,3.0,96,0.00,,,0.00,WUHU216DAVISVP2,2013-09-17 12:50:00,
2013-09-17 08:55:00,52.9,51.8,30.34,East,81,1.0,2.0,96,0.00,,,0.00,WUHU216DAVISVP2,2013-09-17 12:55:00,
2013-09-17 09:00:00,53.1,52.0,30.34,ENE,68,1.7,4.0,96,0.00,,,0.00,WUHU216DAVISVP2,2013-09-17 13:00:00,
2013-09-17 09:05:00,53.3,52.2,30.34,NNE,25,1.0,4.0,96,0.00,,,0.00,WUHU216DAVISVP2,2013-09-17 13:05:00,
2013-09-17 09:10:00,53.4,52.3,30.34,ESE,110,1.0,4.0,96,0.00,,,0.00,WUHU216DAVISVP2,2013-09-17 13:10:00,
2013-09-17 09:15:00,53.6,52.2,30.34,East,87,1.0,4.0,95,0.00,,,0.00,WUHU216DAVISVP2,2013-09-17 13:15:00,
2013-09-17 09:20:00,53.9,52.5,30.34,East,101,1.3,3.0,95,0.00,,,0.00,WUHU216DAVISVP2,2013-09-17 13:20:00,
2013-09-17 09:25:00,54.6,53.2,30.34,NNE,21,1.6,3.0,95,0.00,,,0.00,WUHU216DAVISVP2,2013-09-17 13:25:00,
2013-09-17 09:30:00,55.0,53.0,30.34,ENE,71,2.0,3.0,93,0.00,,,0.00,WUHU216DAVISVP2,2013-09-17 13:30:00,
2013-09-17 09:35:00,55.0,53.0,30.34,East,87,3.0,3.0,93,0.00,,,0.00,WUHU216DAVISVP2,2013-09-17 13:35:00,
2013-09-17 09:40:00,54.8,52.5,30.34,ENE,74,3.0,4.0,92,0.00,,,0.00,WUHU216DAVISVP2,2013-09-17 13:40:00,
2013-09-17 09:45:00,54.9,52.9,30.34,East,86,1.0,4.0,93,0.00,,,0.00,WUHU216DAVISVP2,2013-09-17 13:45:00,
2013-09-17 09:50:00,55.4,53.4,30.34,ESE,113,2.0,4.0,93,0.00,,,0.00,WUHU216DAVISVP2,2013-09-17 13:50:00,
2013-09-17 09:55:00,55.8,53.5,30.34,ESE,117,1.9,4.0,92,0.00,,,0.00,WUHU216DAVISVP2,2013-09-17 13:55:00,
2013-09-17 10:00:00,56.6,54.0,30.34,East,81,1.5,4.0,91,0.00,,,0.00,WUHU216DAVISVP2,2013-09-17 14:00:00,
2013-09-17 10:05:00,57.4,54.5,30.33,ESE,120,1.0,3.0,90,0.00,,,0.00,WUHU216DAVISVP2,2013-09-17 14:05:00,
2013-09-17 10:10:00,58.5,55.2,30.33,West,262,1.0,3.0,89,0.00,,,0.00,WUHU216DAVISVP2,2013-09-17 14:10:00,
2013-09-17 10:15:00,59.5,55.6,30.33,ESE,105,1.8,4.0,87,0.00,,,0.00,WUHU216DAVISVP2,2013-09-17 14:15:00,
2013-09-17 10:20:00,60.1,55.9,30.33,NNE,23,1.7,4.0,86,0.00,,,0.00,WUHU216DAVISVP2,2013-09-17 14:20:00,
2013-09-17 10:25:00,60.5,56.0,30.33,East,86,2.0,4.0,85,0.00,,,0.00,WUHU216DAVISVP2,2013-09-17 14:25:00,
2013-09-17 10:30:00,61.0,55.8,30.33,SSE,155,0.0,4.0,83,0.00,,,0.00,WUHU216DAVISVP2,2013-09-17 14:30:00,
2013-09-17 10:35:00,61.6,56.7,30.33,West,277,1.0,3.0,84,0.00,,,0.00,WUHU216DAVISVP2,2013-09-17 14:35:00,
2013-09-17 10:40:00,62.2,57.3,30.33,West,260,1.0,3.0,84,0.00,,,0.00,WUHU216DAVISVP2,2013-09-17 14:40:00,
2013-09-17 10:45:00,62.9,57.7,30.33,SE,128,1.0,3.0,83,0.00,,,0.00,WUHU216DAVISVP2,2013-09-17 14:45:00,
2013-09-17 10:50:00,63.9,57.7,30.33,NW,309,2.0,3.0,80,0.00,,,0.00,WUHU216DAVISVP2,2013-09-17 14:50:00,
2013-09-17 10:55:00,64.0,57.8,30.33,NNE,33,1.7,3.0,80,0.00,,,0.00,WUHU216DAVISVP2,2013-09-17 14:55:00,
2013-09-17 11:00:00,63.9,57.3,30.32,NE,45,1.0,3.0,79,0.00,,,0.00,WUHU216DAVISVP2,2013-09-17 15:00:00,
2013-09-17 11:05:00,64.4,57.5,30.32,West,262,3.0,3.0,78,0.00,,,0.00,WUHU216DAVISVP2,2013-09-17 15:05:00,
2013-09-17 11:10:00,64.5,57.6,30.32,NNE,12,1.9,3.0,78,0.00,,,0.00,WUHU216DAVISVP2,2013-09-17 15:10:00,
2013-09-17 11:15:00,65.5,58.5,30.32,ENE,60,1.2,3.0,78,0.00,,,0.00,WUHU216DAVISVP2,2013-09-17 15:15:00,
2013-09-17 11:20:00,66.4,59.1,30.32,North,2,1.4,3.0,77,0.00,,,0.00,WUHU216DAVISVP2,2013-09-17 15:20:00,
2013-09-17 11:25:00,66.7,58.6,30.32,NW,311,1.8,4.0,75,0.00,,,0.00,WUHU216DAVISVP2,2013-09-17 15:25:00,
2013-09-17 11:30:00,66.8,58.7,30.32,West,270,1.0,4.0,75,0.00,,,0.00,WUHU216DAVISVP2,2013-09-17 15:30:00,
2013-09-17 11:35:00,67.2,58.8,30.32,West,265,2.0,4.0,74,0.00,,,0.00,WUHU216DAVISVP2,2013-09-17 15:35:00,
2013-09-17 11:40:00,68.1,60.0,30.32,ESE,111,2.0,4.0,75,0.00,,,0.00,WUHU216DAVISVP2,2013-09-17 15:40:00,
2013-09-17 11:45:00,68.8,58.0,30.31,ESE,118,2.0,4.0,68,0.00,,,0.00,WUHU216DAVISVP2,2013-09-17 15:45:00,
2013-09-17 11:50:00,68.9,57.7,30.31,ENE,59,2.0,4.0,67,0.00,,,0.00,WUHU216DAVISVP2,2013-09-17 15:50:00,
2013-09-17 11:55:00,69.1,57.9,30.31,East,80,1.5,4.0,67,0.00,,,0.00,WUHU216DAVISVP2,2013-09-17 15:55:00,
2013-09-17 12:00:00,69.5,57.0,30.31,East,86,1.3,4.0,64,0.00,,,0.00,WUHU216DAVISVP2,2013-09-17 16:00:00,
2013-09-17 12:05:00,70.0,56.6,30.31,ENE,64,2.1,6.0,62,0.00,,,0.00,WUHU216DAVISVP2,2013-09-17 16:05:00,
2013-09-17 12:10:00,70.0,57.0,30.31,ENE,75,2.0,7.0,63,0.00,,,0.00,WUHU216DAVISVP2,2013-09-17 16:10:00,
2013-09-17 12:15:00,70.2,55.8,30.31,NE,41,2.0,7.0,60,0.00,,,0.00,WUHU216DAVISVP2,2013-09-17 16:15:00,
2013-09-17 12:20:00,70.5,54.2,30.30,SE,124,1.4,7.0,56,0.00,,,0.00,WUHU216DAVISVP2,2013-09-17 16:20:00,
2013-09-17 12:25:00,70.8,55.0,30.30,East,97,1.8,7.0,57,0.00,,,0.00,WUHU216DAVISVP2,2013-09-17 16:25:00,
2013-09-17 12:30:00,71.4,55.5,30.30,NE,46,4.0,5.0,57,0.00,,,0.00,WUHU216DAVISVP2,2013-09-17 16:30:00,
2013-09-17 12:35:00,71.4,55.0,30.30,SE,132,4.0,6.0,56,0.00,,,0.00,WUHU216DAVISVP2,2013-09-17 16:35:00,
2013-09-17 12:40:00,71.7,57.7,30.30,NE,53,1.0,7.0,61,0.00,,,0.00,WUHU216DAVISVP2,2013-09-17 16:40:00,
2013-09-17 12:45:00,72.5,56.1,30.30,NNW,328,1.3,7.0,56,0.00,,,0.00,WUHU216DAVISVP2,2013-09-17 16:45:00,
2013-09-17 12:50:00,72.8,58.3,30.30,ESE,104,2.2,6.0,60,0.00,,,0.00,WUHU216DAVISVP2,2013-09-17 16:50:00,
2013-09-17 12:55:00,72.6,55.7,30.29,East,85,2.1,6.0,55,0.00,,,0.00,WUHU216DAVISVP2,2013-09-17 16:55:00,
2013-09-17 13:00:00,72.6,55.7,30.29,East,96,1.0,6.0,55,0.00,,,0.00,WUHU216DAVISVP2,2013-09-17 17:00:00,
2013-09-17 13:05:00,73.3,56.3,30.29,SE,141,3.0,5.0,55,0.00,,,0.00,WUHU216DAVISVP2,2013-09-17 17:05:00,
2013-09-17 13:10:00,73.5,54.9,30.29,ESE,106,2.5,5.0,52,0.00,,,0.00,WUHU216DAVISVP2,2013-09-17 17:10:00,
2013-09-17 13:15:00,73.7,54.5,30.29,ENE,65,3.0,5.0,51,0.00,,,0.00,WUHU216DAVISVP2,2013-09-17 17:15:00,
2013-09-17 13:20:00,73.5,54.9,30.28,NE,39,2.0,5.0,52,0.00,,,0.00,WUHU216DAVISVP2,2013-09-17 17:20:00,
2013-09-17 13:25:00,73.0,54.3,30.28,WSW,252,1.9,5.0,52,0.00,,,0.00,WUHU216DAVISVP2,2013-09-17 17:25:00,
2013-09-17 13:36:00,73.4,54.8,30.28,West,275,2.1,4.0,52,0.00,,,0.00,WUHU216DAVISVP2,2013-09-17 17:36:00,
2013-09-17 13:41:00,73.8,57.8,30.27,ESE,110,1.6,6.0,57,0.00,,,0.00,WUHU216DAVISVP2,2013-09-17 17:41:00,
2013-09-17 13:46:00,73.4,53.6,30.27,East,98,2.0,6.0,50,0.00,,,0.00,WUHU216DAVISVP2,2013-09-17 17:46:00,
2013-09-17 13:51:00,73.7,54.4,30.27,SW,231,4.0,7.0,51,0.00,,,0.00,WUHU216DAVISVP2,2013-09-17 17:51:00,
2013-09-17 13:56:00,74.3,55.0,30.26,ENE,62,2.0,7.0,51,0.00,,,0.00,WUHU216DAVISVP2,2013-09-17 17:56:00,
2013-09-17 14:01:00,74.4,56.7,30.26,NNW,335,3.0,7.0,54,0.00,,,0.00,WUHU216DAVISVP2,2013-09-17 18:01:00,
2013-09-17 14:06:00,74.3,57.1,30.26,WNW,295,2.2,5.0,55,0.00,,,0.00,WUHU216DAVISVP2,2013-09-17 18:06:00,
2013-09-17 14:12:00,74.4,56.2,30.26,NNW,346,3.0,6.0,53,0.00,,,0.00,WUHU216DAVISVP2,2013-09-17 18:12:00,
2013-09-17 14:17:00,74.3,57.1,30.26,West,264,3.0,6.0,55,0.00,,,0.00,WUHU216DAVISVP2,2013-09-17 18:17:00,
2013-09-17 14:22:00,74.5,58.3,30.25,NNE,25,1.3,5.0,57,0.00,,,0.00,WUHU216DAVISVP2,2013-09-17 18:22:00,
2013-09-17 14:27:00,74.6,56.9,30.25,WNW,296,2.3,6.0,54,0.00,,,0.00,WUHU216DAVISVP2,2013-09-17 18:27:00,
2013-09-17 14:32:00,74.5,57.3,30.25,ENE,65,4.0,6.0,55,0.00,,,0.00,WUHU216DAVISVP2,2013-09-17 18:32:00,
2013-09-17 14:37:00,74.3,55.5,30.24,WNW,295,2.0,6.0,52,0.00,,,0.00,WUHU216DAVISVP2,2013-09-17 18:37:00,
2013-09-17 14:42:00,74.6,56.3,30.24,ENE,58,2.0,5.0,53,0.00,,,0.00,WUHU216DAVISVP2,2013-09-17 18:42:00,
2013-09-17 14:47:00,75.0,56.2,30.24,South,183,1.0,4.0,52,0.00,,,0.00,WUHU216DAVISVP2,2013-09-17 18:47:00,
2013-09-17 14:52:00,75.8,55.9,30.24,ENE,77,1.5,4.0,50,0.00,,,0.00,WUHU216DAVISVP2,2013-09-17 18:52:00,
2013-09-17 14:57:00,75.6,57.4,30.24,NE,48,3.0,5.0,53,0.00,,,0.00,WUHU216DAVISVP2,2013-09-17 18:57:00,
2013-09-17 15:02:00,75.3,55.9,30.24,NW,314,1.2,5.0,51,0.00,,,0.00,WUHU216DAVISVP2,2013-09-17 19:02:00,
2013-09-17 15:07:00,75.5,56.6,30.24,SW,221,2.0,4.0,52,0.00,,,0.00,WUHU216DAVISVP2,2013-09-17 19:07:00,
2013-09-17 15:12:00,75.3,56.5,30.23,West,273,2.0,4.0,52,0.00,,,0.00,WUHU216DAVISVP2,2013-09-17 19:12:00,
2013-09-17 15:17:00,75.4,57.6,30.23,WNW,295,2.1,4.0,54,0.00,,,0.00,WUHU216DAVISVP2,2013-09-17 19:17:00,
2013-09-17 15:22:00,75.6,59.0,30.23,ENE,75,1.9,4.0,56,0.00,,,0.00,WUHU216DAVISVP2,2013-09-17 19:22:00,
2013-09-17 15:27:00,75.3,55.5,30.22,NNE,19,2.0,5.0,50,0.00,,,0.00,WUHU216DAVISVP2,2013-09-17 19:27:00,
2013-09-17 15:32:00,75.0,56.8,30.22,NW,317,1.6,5.0,53,0.00,,,0.00,WUHU216DAVISVP2,2013-09-17 19:32:00,
2013-09-17 15:37:00,74.8,56.1,30.22,SE,141,1.1,4.0,52,0.00,,,0.00,WUHU216DAVISVP2,2013-09-17 19:37:00,
2013-09-17 15:42:00,74.8,55.6,30.22,SSE,152,1.0,4.0,51,0.00,,,0.00,WUHU216DAVISVP2,2013-09-17 19:42:00,
2013-09-17 15:47:00,75.0,56.3,30.22,West,263,1.2,4.0,52,0.00,,,0.00,WUHU216DAVISVP2,2013-09-17 19:47:00,
2013-09-17 15:52:00,75.3,57.1,30.22,NW,322,1.0,4.0,53,0.00,,,0.00,WUHU216DAVISVP2,2013-09-17 19:52:00,
2013-09-17 15:57:00,75.4,56.7,30.22,ENE,64,2.0,4.0,52,0.00,,,0.00,WUHU216DAVISVP2,2013-09-17 19:57:00,
2013-09-17 16:02:00,75.5,55.6,30.21,SE,124,1.2,4.0,50,0.00,,,0.00,WUHU216DAVISVP2,2013-09-17 20:02:00,
2013-09-17 16:07:00,75.6,55.2,30.21,ENE,59,1.4,4.0,49,0.00,,,0.00,WUHU216DAVISVP2,2013-09-17 20:07:00,
2013-09-17 16:12:00,75.7,54.7,30.21,East,89,1.0,4.0,48,0.00,,,0.00,WUHU216DAVISVP2,2013-09-17 20:12:00,
2013-09-17 16:17:00,76.1,55.6,30.21,West,266,2.0,4.0,49,0.00,,,0.00,WUHU216DAVISVP2,2013-09-17 20:17:00,
2013-09-17 16:22:00,75.7,56.9,30.21,WNW,285,1.0,4.0,52,0.00,,,0.00,WUHU216DAVISVP2,2013-09-17 20:22:00,
2013-09-17 16:27:00,76.0,57.8,30.21,WNW,282,1.8,4.0,53,0.00,,,0.00,WUHU216DAVISVP2,2013-09-17 20:27:00,
2013-09-17 16:32:00,76.3,56.4,30.21,East,97,2.2,4.0,50,0.00,,,0.00,WUHU216DAVISVP2,2013-09-17 20:32:00,
2013-09-17 16:37:00,75.9,55.4,30.21,ESE,108,1.7,4.0,49,0.00,,,0.00,WUHU216DAVISVP2,2013-09-17 20:37:00,
2013-09-17 16:42:00,75.7,54.7,30.20,ESE,109,1.0,4.0,48,0.00,,,0.00,WUHU216DAVISVP2,2013-09-17 20:42:00,
2013-09-17 16:47:00,76.7,57.3,30.20,East,98,1.0,4.0,51,0.00,,,0.00,WUHU216DAVISVP2,2013-09-17 20:47:00,
2013-09-17 16:52:00,77.2,56.0,30.20,NE,55,1.0,3.0,48,0.00,,,0.00,WUHU216DAVISVP2,2013-09-17 20:52:00,
2013-09-17 16:57:00,77.1,56.0,30.20,West,280,2.1,3.0,48,0.00,,,0.00,WUHU216DAVISVP2,2013-09-17 20:57:00,
2013-09-17 17:02:00,76.7,56.2,30.20,NW,308,1.4,3.0,49,0.00,,,0.00,WUHU216DAVISVP2,2013-09-17 21:02:00,
2013-09-17 17:07:00,76.7,58.4,30.20,NW,316,2.0,3.0,53,0.00,,,0.00,WUHU216DAVISVP2,2013-09-17 21:07:00,
2013-09-17 17:12:00,76.2,56.3,30.20,WNW,283,1.0,3.0,50,0.00,,,0.00,WUHU216DAVISVP2,2013-09-17 21:12:00,
2013-09-17 17:17:00,76.8,56.3,30.20,NE,42,1.0,3.0,49,0.00,,,0.00,WUHU216DAVISVP2,2013-09-17 21:17:00,
2013-09-17 17:22:00,76.8,58.0,30.20,West,269,1.0,3.0,52,0.00,,,0.00,WUHU216DAVISVP2,2013-09-17 21:22:00,
2013-09-17 17:27:00,76.5,56.6,30.19,WNW,294,1.0,3.0,50,0.00,,,0.00,WUHU216DAVISVP2,2013-09-17 21:27:00,
2013-09-17 17:32:00,77.0,55.9,30.20,SW,229,1.4,3.0,48,0.00,,,0.00,WUHU216DAVISVP2,2013-09-17 21:32:00,
2013-09-17 17:37:00,77.7,55.9,30.19,WNW,287,1.0,3.0,47,0.00,,,0.00,WUHU216DAVISVP2,2013-09-17 21:37:00,
2013-09-17 17:42:00,78.1,57.5,30.19,WNW,286,1.0,3.0,49,0.00,,,0.00,WUHU216DAVISVP2,2013-09-17 21:42:00,
2013-09-17 17:47:00,78.1,60.3,30.19,WNW,287,0.0,2.0,54,0.00,,,0.00,WUHU216DAVISVP2,2013-09-17 21:47:00,
2013-09-17 17:52:00,78.4,60.5,30.19,WNW,287,0.0,1.0,54,0.00,,,0.00,WUHU216DAVISVP2,2013-09-17 21:52:00,
2013-09-17 17:57:00,77.9,61.6,30.19,WNW,287,1.0,1.0,57,0.00,,,0.00,WUHU216DAVISVP2,2013-09-17 21:57:00,
2013-09-17 18:02:00,77.0,59.8,30.19,WNW,287,1.0,1.0,55,0.00,,,0.00,WUHU216DAVISVP2,2013-09-17 22:02:00,
2013-09-17 18:07:00,76.6,60.4,30.19,WNW,286,0.0,1.0,57,0.00,,,0.00,WUHU216DAVISVP2,2013-09-17 22:07:00,
2013-09-17 18:12:00,76.7,62.0,30.19,WNW,286,0.0,1.0,60,0.00,,,0.00,WUHU216DAVISVP2,2013-09-17 22:12:00,
2013-09-17 18:17:00,75.9,62.6,30.19,WNW,287,0.0,1.0,63,0.00,,,0.00,WUHU216DAVISVP2,2013-09-17 22:17:00,
2013-09-17 18:22:00,74.3,62.8,30.19,WNW,286,0.0,1.0,67,0.00,,,0.00,WUHU216DAVISVP2,2013-09-17 22:22:00,
2013-09-17 18:27:00,72.2,62.8,30.19,WNW,286,0.0,1.0,72,0.00,,,0.00,WUHU216DAVISVP2,2013-09-17 22:27:00,
2013-09-17 18:32:00,71.2,61.9,30.19,WNW,287,0.0,1.0,72,0.00,,,0.00,WUHU216DAVISVP2,2013-09-17 22:32:00,
2013-09-17 18:37:00,69.9,60.6,30.20,WNW,287,0.0,0.0,72,0.00,,,0.00,WUHU216DAVISVP2,2013-09-17 22:37:00,
2013-09-17 18:42:00,69.1,60.6,30.20,WNW,286,0.0,1.0,74,0.00,,,0.00,WUHU216DAVISVP2,2013-09-17 22:42:00,
2013-09-17 18:47:00,68.6,61.5,30.20,WNW,287,0.0,1.0,78,0.00,,,0.00,WUHU216DAVISVP2,2013-09-17 22:47:00,
2013-09-17 18:52:00,67.6,61.3,30.20,East,88,1.0,1.0,80,0.00,,,0.00,WUHU216DAVISVP2,2013-09-17 22:52:00,
2013-09-17 18:57:00,66.8,61.1,30.20,ENE,60,1.0,2.0,82,0.00,,,0.00,WUHU216DAVISVP2,2013-09-17 22:57:00,
2013-09-17 19:02:00,66.0,60.3,30.19,ENE,60,1.0,2.0,82,0.00,,,0.00,WUHU216DAVISVP2,2013-09-17 23:02:00,
2013-09-17 19:07:00,65.5,60.5,30.20,ENE,61,0.0,1.0,84,0.00,,,0.00,WUHU216DAVISVP2,2013-09-17 23:07:00,
2013-09-17 19:12:00,65.2,60.2,30.20,ENE,61,0.0,1.0,84,0.00,,,0.00,WUHU216DAVISVP2,2013-09-17 23:12:00,
2013-09-17 19:18:00,64.9,60.6,30.20,ENE,61,1.0,1.0,86,0.00,,,0.00,WUHU216DAVISVP2,2013-09-17 23:18:00,
2013-09-17 19:23:00,64.3,60.0,30.20,ENE,60,1.0,1.0,86,0.00,,,0.00,WUHU216DAVISVP2,2013-09-17 23:23:00,
2013-09-17 19:28:00,64.0,59.4,30.20,East,97,0.0,1.0,85,0.00,,,0.00,WUHU216DAVISVP2,2013-09-17 23:28:00,
2013-09-17 19:33:00,63.8,59.5,30.20,East,97,0.0,1.0,86,0.00,,,0.00,WUHU216DAVISVP2,2013-09-17 23:33:00,
2013-09-17 19:38:00,63.4,59.8,30.20,East,97,0.0,1.0,88,0.00,,,0.00,WUHU216DAVISVP2,2013-09-17 23:38:00,
2013-09-17 19:43:00,63.0,59.4,30.20,East,97,0.0,1.0,88,0.00,,,0.00,WUHU216DAVISVP2,2013-09-17 23:43:00,
2013-09-17 19:48:00,62.7,59.1,30.20,East,97,0.0,0.0,88,0.00,,,0.00,WUHU216DAVISVP2,2013-09-17 23:48:00,
2013-09-17 19:53:00,62.4,59.1,30.20,East,97,0.0,0.0,89,0.00,,,0.00,WUHU216DAVISVP2,2013-09-17 23:53:00,
2013-09-17 19:58:00,62.2,59.2,30.20,East,97,0.0,0.0,90,0.00,,,0.00,WUHU216DAVISVP2,2013-09-17 23:58:00,
2013-09-17 20:03:00,61.9,58.9,30.20,East,97,0.0,0.0,90,0.00,,,0.00,WUHU216DAVISVP2,2013-09-18 00:03:00,
2013-09-17 20:08:00,61.4,58.4,30.21,East,97,0.0,0.0,90,0.00,,,0.00,WUHU216DAVISVP2,2013-09-18 00:08:00,
2013-09-17 20:13:00,61.1,58.4,30.21,East,98,0.0,0.0,91,0.00,,,0.00,WUHU216DAVISVP2,2013-09-18 00:13:00,
2013-09-17 20:18:00,60.9,58.5,30.21,East,98,0.0,0.0,92,0.00,,,0.00,WUHU216DAVISVP2,2013-09-18 00:18:00,
2013-09-17 20:23:00,60.4,58.0,30.21,East,98,0.0,0.0,92,0.00,,,0.00,WUHU216DAVISVP2,2013-09-18 00:23:00,
2013-09-17 20:28:00,59.9,57.5,30.22,East,97,0.0,0.0,92,0.00,,,0.00,WUHU216DAVISVP2,2013-09-18 00:28:00,
2013-09-17 20:33:00,59.5,57.4,30.22,East,98,0.0,0.0,93,0.00,,,0.00,WUHU216DAVISVP2,2013-09-18 00:33:00,
2013-09-17 20:38:00,59.2,57.1,30.22,East,97,0.0,0.0,93,0.00,,,0.00,WUHU216DAVISVP2,2013-09-18 00:38:00,
2013-09-17 20:43:00,58.9,57.1,30.22,East,97,0.0,0.0,94,0.00,,,0.00,WUHU216DAVISVP2,2013-09-18 00:43:00,
2013-09-17 20:48:00,58.4,56.4,30.22,East,97,0.0,0.0,93,0.00,,,0.00,WUHU216DAVISVP2,2013-09-18 00:48:00,
2013-09-17 20:53:00,58.1,56.4,30.22,East,98,0.0,0.0,94,0.00,,,0.00,WUHU216DAVISVP2,2013-09-18 00:53:00,
2013-09-17 20:58:00,57.9,56.2,30.22,East,98,0.0,0.0,94,0.00,,,0.00,WUHU216DAVISVP2,2013-09-18 00:58:00,
2013-09-17 21:03:00,57.5,55.8,30.22,East,98,0.0,0.0,94,0.00,,,0.00,WUHU216DAVISVP2,2013-09-18 01:03:00,
2013-09-17 21:08:00,57.1,55.4,30.22,East,97,0.0,0.0,94,0.00,,,0.00,WUHU216DAVISVP2,2013-09-18 01:08:00,
2013-09-17 21:13:00,57.0,55.5,30.23,East,97,0.0,1.0,95,0.00,,,0.00,WUHU216DAVISVP2,2013-09-18 01:13:00,
2013-09-17 21:18:00,57.0,55.6,30.23,East,97,0.0,1.0,95,0.00,,,0.00,WUHU216DAVISVP2,2013-09-18 01:18:00,
2013-09-17 21:23:00,56.8,55.4,30.23,East,98,0.0,1.0,95,0.00,,,0.00,WUHU216DAVISVP2,2013-09-18 01:23:00,
2013-09-17 21:28:00,56.6,55.2,30.23,East,98,0.0,1.0,95,0.00,,,0.00,WUHU216DAVISVP2,2013-09-18 01:28:00,
2013-09-17 21:33:00,56.5,55.1,30.23,East,97,0.0,0.0,95,0.00,,,0.00,WUHU216DAVISVP2,2013-09-18 01:33:00,
2013-09-17 21:38:00,56.3,54.8,30.23,East,97,0.0,0.0,95,0.00,,,0.00,WUHU216DAVISVP2,2013-09-18 01:38:00,
2013-09-17 21:43:00,56.2,54.7,30.23,East,97,0.0,0.0,95,0.00,,,0.00,WUHU216DAVISVP2,2013-09-18 01:43:00,
2013-09-17 21:48:00,56.2,54.7,30.23,East,98,0.0,0.0,95,0.00,,,0.00,WUHU216DAVISVP2,2013-09-18 01:48:00,
2013-09-17 21:53:00,56.1,54.6,30.23,East,98,0.0,0.0,95,0.00,,,0.00,WUHU216DAVISVP2,2013-09-18 01:53:00,
2013-09-17 21:58:00,55.8,54.4,30.23,East,98,0.0,0.0,95,0.00,,,0.00,WUHU216DAVISVP2,2013-09-18 01:58:00,
2013-09-17 22:03:00,55.7,54.3,30.23,East,98,0.0,0.0,95,0.00,,,0.00,WUHU216DAVISVP2,2013-09-18 02:03:00,
2013-09-17 22:08:00,55.5,54.1,30.23,East,98,0.0,0.0,95,0.00,,,0.00,WUHU216DAVISVP2,2013-09-18 02:08:00,
2013-09-17 22:13:00,55.2,53.8,30.23,East,97,0.0,0.0,95,0.00,,,0.00,WUHU216DAVISVP2,2013-09-18 02:13:00,
2013-09-17 22:18:00,54.9,53.5,30.23,East,98,0.0,0.0,95,0.00,,,0.00,WUHU216DAVISVP2,2013-09-18 02:18:00,
2013-09-17 22:23:00,54.8,53.4,30.23,East,98,0.0,0.0,95,0.00,,,0.00,WUHU216DAVISVP2,2013-09-18 02:23:00,
2013-09-17 22:28:00,54.5,53.1,30.23,East,97,0.0,0.0,95,0.00,,,0.00,WUHU216DAVISVP2,2013-09-18 02:28:00,
2013-09-17 22:33:00,54.5,53.3,30.23,East,98,0.0,0.0,96,0.00,,,0.00,WUHU216DAVISVP2,2013-09-18 02:33:00,
2013-09-17 22:38:00,54.3,53.1,30.23,East,98,0.0,0.0,96,0.00,,,0.00,WUHU216DAVISVP2,2013-09-18 02:38:00,
2013-09-17 22:43:00,54.2,53.0,30.23,East,98,0.0,0.0,96,0.00,,,0.00,WUHU216DAVISVP2,2013-09-18 02:43:00,
2013-09-17 22:48:00,54.1,52.9,30.23,East,97,0.0,0.0,96,0.00,,,0.00,WUHU216DAVISVP2,2013-09-18 02:48:00,
2013-09-17 22:53:00,54.1,52.9,30.23,East,97,0.0,0.0,96,0.00,,,0.00,WUHU216DAVISVP2,2013-09-18 02:53:00,
2013-09-17 22:58:00,54.0,52.9,30.23,East,98,0.0,0.0,96,0.00,,,0.00,WUHU216DAVISVP2,2013-09-18 02:58:00,
2013-09-17 23:03:00,53.8,52.7,30.23,East,97,0.0,0.0,96,0.00,,,0.00,WUHU216DAVISVP2,2013-09-18 03:03:00,
2013-09-17 23:08:00,53.4,52.3,30.23,East,97,0.0,0.0,96,0.00,,,0.00,WUHU216DAVISVP2,2013-09-18 03:08:00,
2013-09-17 23:13:00,52.8,51.4,30.23,East,98,0.0,0.0,95,0.00,,,0.00,WUHU216DAVISVP2,2013-09-18 03:13:00,
2013-09-17 23:18:00,52.9,51.8,30.23,East,97,0.0,0.0,96,0.00,,,0.00,WUHU216DAVISVP2,2013-09-18 03:18:00,
2013-09-17 23:23:00,53.1,52.0,30.23,East,98,0.0,0.0,96,0.00,,,0.00,WUHU216DAVISVP2,2013-09-18 03:23:00,
2013-09-17 23:28:00,52.9,51.8,30.23,East,98,0.0,0.0,96,0.00,,,0.00,WUHU216DAVISVP2,2013-09-18 03:28:00,
2013-09-17 23:33:00,52.6,51.5,30.23,East,98,0.0,0.0,96,0.00,,,0.00,WUHU216DAVISVP2,2013-09-18 03:33:00,
2013-09-17 23:38:00,52.5,51.4,30.23,East,98,0.0,0.0,96,0.00,,,0.00,WUHU216DAVISVP2,2013-09-18 03:38:00,
2013-09-17 23:43:00,52.8,51.7,30.23,East,97,0.0,0.0,96,0.00,,,0.00,WUHU216DAVISVP2,2013-09-18 03:43:00,
2013-09-17 23:48:00,52.8,51.7,30.23,East,98,0.0,0.0,96,0.00,,,0.00,WUHU216DAVISVP2,2013-09-18 03:48:00,
2013-09-17 23:53:00,52.4,51.3,30.23,East,98,0.0,0.0,96,0.00,,,0.00,WUHU216DAVISVP2,2013-09-18 03:53:00,
2013-09-17 23:58:00,52.2,51.1,30.23,East,98,0.0,0.0,96,0.00,,,0.00,WUHU216DAVISVP2,2013-09-18 03:58:00,